Temp
-23 -22 -22 -23 -22 -22 -21 -21 -21 -21 -20 -20 -19 -19 -19 -19 -19 -18 -18 -18 -18 -18 -18 -17 -17 -17 -17 -17 -17 -17 -17 -17 -17 -17 -17 -17 -17 -17 -17 -17 -17 -17 -17 -17
-24 -24 -23 -23 -23 -23 -22 -22 -22 -22 -21 -20 -19 -19 -19 -20 -19 -19 -18 -18 -18 -18 -18 -18 -17 -17 -18 -17 -17 -17 -17 -17 -17 -17 -17 -17 -17 -17 -17 -17 -17 -17 -17 -17
-24 -24 -24 -24 -23 -23 -23 -23 -22 -22 -22 -21 -20 -20 -20 -20 -20 -19 -19 -19 -19 -18 -18 -18 -18 -18 -18 -18 -18 -18 -18 -18 -18 -18 -18 -18 -17 -17 -17 -17 -17 -17 -18 -18
-24 -24 -24 -24 -24 -24 -23 -23 -23 -22 -22 -22 -21 -21 -20 -20 -20 -20 -20 -19 -19 -19 -19 -18 -19 -18 -18 -18 -18 -18 -18 -18 -18 -18 -18 -18 -17 -17 -17 -17 -17 -17 -17 -18
-24 -24 -24 -24 -24 -24 -24 -24 -23 -23 -22 -22 -22 -21 -21 -21 -21 -21 -20 -20 -19 -19 -19 -19 -19 -19 -19 -19 -19 -18 -18 -18 -18 -18 -18 -18 -17 -17 -17 -18 -17 -17 -17 -18
-24 -24 -24 -24 -24 -24 -24 -23 -24 -23 -23 -23 -22 -22 -22 -22 -21 -21 -21 -20 -20 -20 -20 -19 -19 -19 -19 -19 -19 -19 -19 -18 -18 -18 -18 -18 -17 -18 -18 -18 -18 -18 -17 -18
-24 -24 -24 -24 -24 -24 -24 -24 -24 -23 -23 -23 -23 -22 -22 -22 -22 -21 -22 -22 -21 -21 -21 -20 -19 -19 -19 -19 -19 -19 -19 -18 -18 -18 -18 -18 -17 -18 -18 -18 -18 -18 -18 -18
-26 -25 -25 -25 -25 -24 -24 -24 -24 -24 -23 -23 -23 -23 -23 -23 -23 -21 -22 -22 -21 -21 -21 -21 -20 -19 -19 -19 -19 -19 -19 -19 -18 -18 -18 -18 -18 -18 -18 -18 -18 -18 -18 -18
-26 -26 -26 -25 -25 -25 -24 -24 -24 -24 -23 -23 -24 -23 -23 -23 -22 -22 -21 -22 -22 -22 -22 -21 -20 -19 -19 -19 -19 -19 -19 -19 -18 -18 -18 -18 -18 -18 -18 -18 -18 -18 -18 -18
-28 -27 -27 -26 -26 -26 -25 -25 -24 -24 -23 -23 -23 -24 -24 -24 -23 -23 -22 -23 -23 -23 -21 -21 -20 -20 -19 -19 -19 -19 -19 -19 -18 -18 -18 -18 -18 -18 -18 -18 -18 -18 -18 -18
-31 -30 -30 -29 -27 -27 -26 -25 -25 -25 -24 -23 -23 -23 -24 -24 -24 -23 -23 -24 -23 -23 -22 -21 -21 -20 -20 -19 -19 -19 -19 -19 -18 -18 -18 -18 -18 -18 -18 -18 -18 -18 -18 -18
-33 -33 -33 -32 -31 -29 -27 -26 -26 -26 -25 -24 -23 -23 -23 -24 -24 -24 -23 -23 -23 -23 -22 -22 -22 -20 -20 -19 -19 -19 -19 -19 -19 -19 -18 -19 -18 -18 -18 -18 -18 -18 -18 -18
-35 -35 -34 -34 -34 -33 -30 -29 -28 -27 -26 -25 -24 -23 -24 -24 -24 -25 -24 -23 -24 -23 -23 -22 -22 -21 -20 -20 -20 -19 -19 -19 -19 -19 -19 -19 -18 -18 -18 -19 -18 -18 -18 -18
-35 -35 -35 -34 -34 -34 -34 -32 -31 -29 -28 -26 -25 -25 -24 -24 -25 -24 -25 -25 -24 -24 -23 -22 -22 -21 -21 -21 -20 -20 -20 -19 -19 -19 -19 -19 -19 -19 -19 -19 -19 -19 -19 -19
-35 -35 -35 -34 -34 -34 -34 -34 -33 -32 -30 -28 -26 -25 -26 -26 -25 -25 -25 -25 -25 -25 -24 -23 -22 -22 -21 -21 -21 -20 -20 -19 -19 -19 -20 -19 -19 -19 -19 -19 -19 -19 -19 -19
-34 -34 -34 -34 -34 -34 -34 -34 -34 -33 -32 -30 -28 -27 -27 -27 -26 -25 -26 -26 -26 -25 -26 -24 -23 -23 -22 -22 -21 -20 -20 -20 -20 -19 -20 -19 -19 -19 -19 -19 -19 -19 -19 -19
-34 -34 -34 -34 -34 -34 -34 -34 -34 -34 -34 -33 -31 -29 -28 -27 -27 -26 -26 -27 -26 -26 -25 -25 -23 -23 -24 -23 -21 -21 -21 -20 -20 -20 -20 -19 -19 -19 -19 -19 -19 -19 -19 -19
-34 -34 -34 -34 -34 -34 -34 -34 -34 -34 -34 -34 -32 -30 -29 -28 -28 -27 -27 -27 -27 -26 -25 -25 -25 -24 -24 -23 -21 -21 -21 -21 -20 -20 -20 -20 -20 -19 -19 -19 -19 -19 -19 -19
-34 -34 -34 -34 -34 -33 -33 -34 -34 -34 -34 -34 -34 -33 -31 -31 -29 -29 -28 -28 -28 -27 -26 -25 -26 -25 -25 -21 -21 -21 -21 -21 -21 -21 -20 -20 -20 -20 -20 -20 -20 -20 -20 -20
-33 -34 -34 -33 -32 -33 -34 -34 -34 -35 -34 -34 -34 -34 -32 -31 -30 -30 -29 -29 -28 -27 -26 -25 -25 -25 -23 -23 -23 -22 -22 -22 -21 -21 -21 -20 -21 -21 -20 -20 -20 -20 -20 -20
-33 -33 -33 -33 -33 -33 -34 -34 -34 -34 -34 -34 -34 -34 -33 -31 -31 -30 -30 -29 -29 -28 -27 -26 -26 -25 -23 -23 -23 -22 -22 -22 -22 -22 -22 -21 -21 -21 -21 -21 -20 -20 -20 -20
-33 -33 -33 -33 -33 -33 -34 -34 -33 -33 -34 -34 -34 -34 -34 -32 -31 -30 -30 -29 -29 -28 -28 -27 -26 -23 -23 -24 -23 -23 -23 -23 -22 -22 -22 -22 -21 -21 -21 -21 -21 -21 -21 -21
-33 -34 -33 -33 -33 -33 -33 -33 -33 -33 -33 -34 -34 -34 -33 -33 -32 -30 -29 -29 -29 -29 -28 -28 -25 -24 -24 -24 -24 -23 -23 -23 -23 -23 -23 -22 -22 -22 -22 -21 -21 -21 -21 -21
-33 -33 -33 -33 -33 -33 -32 -33 -33 -34 -34 -34 -35 -35 -34 -33 -32 -30 -30 -29 -29 -29 -28 -27 -24 -24 -24 -24 -24 -25 -24 -24 -23 -23 -23 -23 -23 -22 -22 -22 -22 -22 -22 -22
-32 -33 -32 -32 -32 -32 -32 -33 -34 -34 -35 -35 -35 -35 -34 -34 -32 -30 -30 -29 -29 -29 -28 -26 -25 -24 -24 -25 -25 -25 -25 -24 -24 -23 -23 -23 -23 -22 -22 -22 -23 -23 -23 -23
-32 -32 -32 -32 -33 -33 -33 -34 -35 -35 -35 -35 -35 -34 -34 -33 -32 -31 -30 -29 -29 -28 -28 -26 -25 -25 -26 -26 -26 -26 -25 -24 -24 -23 -23 -23 -23 -22 -22 -22 -23 -23 -23 -23
-32 -32 -32 -32 -33 -33 -34 -35 -35 -35 -35 -34 -34 -34 -33 -31 -30 -30 -29 -29 -28 -28 -27 -28 -27 -28 -27 -27 -26 -25 -25 -25 -24 -23 -23 -23 -23 -23 -22 -22 -23 -23 -23 -23
Height
5552 5555 5559 5564 5568 5573 5581 5588 5594 5600 5606 5613 5619 5627 5638 5646 5649 5654 5661 5668 5672 5677 5681 5686 5689 5694 5697 5702 5706 5709 5712 5713 5715 5718 5719 5720 5721 5723 5724 5724 5726 5725 5725 5727
5541 5544 5547 5551 5555 5560 5568 5576 5580 5587 5594 5599 5608 5618 5626 5634 5639 5644 5651 5659 5664 5668 5674 5678 5681 5687 5691 5695 5700 5702 5706 5708 5711 5713 5716 5717 5718 5719 5720 5721 5721 5721 5721 5722
5532 5535 5538 5540 5544 5548 5555 5563 5568 5575 5582 5588 5598 5606 5614 5623 5630 5633 5640 5650 5656 5660 5664 5669 5675 5680 5685 5689 5693 5696 5699 5703 5706 5709 5711 5712 5714 5715 5716 5717 5717 5717 5717 5717
5522 5525 5528 5531 5534 5538 5543 5549 5558 5564 5569 5578 5587 5595 5602 5611 5620 5623 5630 5639 5646 5650 5655 5659 5666 5673 5678 5682 5686 5690 5693 5697 5700 5703 5705 5707 5708 5710 5711 5712 5713 5713 5713 5713
5510 5514 5517 5521 5524 5529 5532 5537 5545 5551 5558 5566 5573 5579 5590 5599 5608 5613 5619 5629 5636 5641 5646 5651 5659 5667 5672 5677 5680 5683 5686 5690 5694 5696 5699 5701 5703 5705 5707 5707 5708 5709 5709 5709
5495 5499 5504 5508 5512 5518 5521 5526 5531 5538 5545 5552 5560 5570 5581 5589 5596 5603 5610 5618 5625 5630 5638 5641 5648 5656 5659 5664 5668 5671 5676 5682 5686 5689 5693 5694 5697 5701 5701 5702 5703 5704 5705 5704
5479 5483 5488 5493 5498 5504 5510 5515 5519 5526 5533 5538 5549 5558 5565 5573 5583 5591 5598 5604 5614 5621 5627 5632 5639 5645 5649 5655 5658 5664 5668 5674 5678 5681 5685 5686 5695 5695 5696 5698 5698 5699 5700 5699
5460 5465 5469 5476 5482 5487 5495 5501 5506 5513 5521 5527 5534 5542 5553 5560 5568 5577 5585 5592 5602 5608 5613 5620 5626 5633 5638 5642 5648 5655 5661 5666 5669 5673 5678 5684 5687 5690 5690 5690 5694 5695 5695 5695
5439 5445 5450 5456 5464 5470 5477 5485 5491 5498 5508 5516 5523 5529 5539 5546 5556 5564 5575 5581 5586 5595 5600 5607 5611 5620 5626 5633 5639 5645 5651 5656 5660 5665 5670 5675 5683 5684 5684 5685 5687 5689 5690 5690
5418 5424 5430 5437 5444 5451 5459 5468 5475 5482 5492 5502 5509 5516 5525 5533 5542 5553 5560 5567 5572 5580 5588 5595 5602 5609 5616 5623 5630 5638 5644 5649 5653 5659 5663 5669 5676 5677 5678 5680 5686 5683 5684 5685
5400 5406 5412 5418 5425 5433 5441 5451 5459 5468 5474 5485 5494 5503 5512 5520 5528 5538 5547 5553 5559 5568 5577 5584 5591 5596 5604 5612 5621 5629 5637 5642 5646 5650 5654 5664 5668 5670 5674 5675 5675 5677 5679 5679
5387 5393 5398 5404 5409 5416 5423 5436 5440 5447 5456 5468 5479 5489 5499 5509 5516 5525 5532 5545 5551 5559 5566 5572 5579 5584 5593 5602 5611 5619 5625 5632 5641 5646 5652 5656 5658 5661 5664 5666 5669 5671 5672 5673
5379 5384 5390 5395 5401 5405 5409 5417 5423 5431 5440 5450 5461 5476 5483 5493 5504 5510 5522 5534 5539 5544 5552 5559 5567 5574 5583 5591 5601 5611 5617 5623 5629 5636 5643 5646 5649 5653 5658 5659 5660 5663 5665 5666
5373 5378 5383 5388 5393 5398 5400 5406 5410 5416 5424 5430 5447 5456 5468 5479 5489 5501 5514 5521 5526 5534 5541 5548 5555 5563 5570 5580 5590 5599 5607 5614 5621 5626 5633 5636 5641 5645 5647 5650 5652 5655 5657 5658
5368 5372 5376 5382 5387 5391 5395 5398 5401 5404 5411 5418 5431 5441 5456 5465 5477 5488 5499 5507 5516 5523 5529 5536 5545 5552 5559 5567 5576 5586 5595 5603 5608 5617 5626 5625 5630 5633 5637 5642 5645 5647 5649 5650
5362 5366 5371 5375 5380 5385 5387 5389 5395 5399 5401 5405 5415 5427 5439 5448 5462 5473 5484 5497 5504 5510 5517 5525 5532 5539 5547 5555 5566 5578 5586 5592 5598 5605 5612 5616 5620 5624 5630 5635 5638 5640 5641 5642
5357 5361 5365 5369 5374 5377 5381 5385 5393 5393 5392 5394 5398 5410 5422 5434 5445 5459 5471 5481 5490 5499 5506 5511 5521 5527 5532 5541 5553 5567 5575 5583 5590 5596 5602 5607 5612 5618 5621 5624 5627 5630 5633 5635
5351 5355 5360 5364 5369 5372 5375 5379 5384 5385 5386 5387 5388 5401 5414 5421 5435 5447 5460 5470 5480 5486 5495 5500 5507 5515 5519 5523 5545 5554 5562 5568 5575 5583 5590 5596 5601 5605 5610 5615 5618 5622 5624 5626
5345 5351 5355 5359 5362 5367 5371 5375 5377 5378 5380 5379 5384 5393 5404 5408 5423 5436 5447 5458 5465 5472 5478 5489 5496 5499 5500 5524 5535 5543 5552 5559 5565 5571 5580 5586 5591 5595 5600 5605 5609 5613 5615 5617
5339 5344 5350 5352 5360 5364 5367 5367 5367 5370 5371 5373 5379 5388 5396 5402 5414 5426 5438 5443 5453 5458 5469 5477 5478 5484 5501 5507 5521 5532 5541 5547 5553 5558 5566 5574 5581 5585 5589 5594 5598 5601 5604 5607
5330 5337 5343 5347 5353 5355 5359 5358 5362 5361 5363 5367 5378 5381 5390 5397 5405 5417 5425 5432 5442 5446 5453 5461 5464 5473 5492 5500 5508 5520 5529 5537 5543 5548 5554 5561 5568 5574 5578 5581 5586 5590 5594 5597
5328 5332 5338 5338 5344 5350 5352 5354 5356 5353 5355 5360 5370 5378 5382 5389 5398 5405 5416 5420 5429 5435 5443 5446 5449 5474 5484 5490 5499 5509 5519 5527 5533 5538 5543 5550 5557 5563 5568 5572 5574 5578 5581 5585
5321 5325 5329 5332 5338 5339 5344 5344 5342 5343 5350 5360 5368 5371 5374 5379 5386 5395 5403 5411 5413 5422 5426 5431 5453 5470 5475 5484 5491 5499 5507 5517 5524 5529 5533 5538 5543 5549 5555 5560 5564 5568 5571 5574
5313 5318 5322 5327 5329 5332 5331 5335 5342 5347 5351 5357 5361 5361 5364 5372 5380 5389 5395 5400 5405 5410 5415 5427 5454 5461 5467 5475 5483 5489 5497 5505 5513 5519 5522 5526 5531 5536 5542 5548 5553 5557 5561 5564
5309 5313 5316 5319 5323 5326 5332 5337 5341 5342 5347 5351 5353 5354 5359 5366 5371 5379 5388 5396 5396 5401 5419 5438 5445 5452 5459 5466 5473 5478 5485 5492 5499 5506 5512 5516 5520 5525 5531 5537 5542 5546 5549 5552
5306 5308 5311 5314 5317 5322 5328 5332 5335 5339 5342 5344 5346 5350 5356 5361 5367 5378 5386 5390 5396 5412 5424 5434 5437 5444 5448 5455 5461 5467 5473 5480 5487 5493 5499 5504 5509 5516 5520 5525 5529 5533 5537 5539
5302 5304 5306 5309 5314 5319 5324 5327 5330 5332 5334 5337 5339 5340 5348 5365 5370 5379 5381 5392 5406 5413 5420 5424 5428 5434 5440 5444 5450 5456 5463 5469 5476 5483 5489 5495 5499 5504 5509 5514 5518 5522 5526 5528
Wind_Speed
40 41 43 46 49 52 53 54 53 52 52 52 55 52 47 42 43 44 42 39 38 36 33 33 33 32 32 30 27 24 21 21 21 20 19 18 15 14 14 14 14 15 15 13
33 32 33 39 45 50 53 53 55 54 53 55 55 53 47 44 46 47 45 41 40 40 36 37 38 36 34 31 28 27 24 24 22 22 20 17 15 14 13 14 14 13 15 14
32 31 30 31 39 46 50 53 55 57 56 57 55 54 48 46 46 49 47 43 42 42 41 40 40 37 36 33 32 31 27 25 23 22 20 19 17 16 15 14 13 13 13 13
36 35 33 33 33 39 46 51 54 56 58 59 57 55 52 47 47 51 50 46 45 45 44 44 41 38 37 35 34 32 31 27 25 24 22 21 19 17 16 14 14 12 12 11
42 41 40 38 37 36 39 45 50 56 58 58 57 53 55 46 48 51 52 48 47 47 48 46 41 38 37 35 35 35 33 31 27 27 25 25 22 19 16 15 14 12 12 10
47 47 47 46 44 40 40 40 44 51 58 58 58 54 55 44 47 51 50 49 49 50 49 49 46 43 43 43 42 42 39 35 32 30 27 28 25 16 18 17 15 15 11 13
50 54 53 52 52 49 46 44 45 43 50 62 58 56 53 53 47 52 50 51 51 51 49 51 49 48 46 45 45 45 42 39 37 34 31 32 20 20 20 19 18 15 11 12
53 54 57 57 55 56 54 51 50 47 45 48 61 61 59 55 52 52 54 53 53 53 54 53 52 51 51 50 48 44 45 43 41 38 33 27 24 20 22 22 18 15 14 12
56 56 58 60 59 59 59 59 57 54 49 48 49 57 59 58 57 55 53 53 54 57 55 56 57 56 55 53 50 46 46 47 46 42 36 30 22 21 23 22 19 18 16 13
56 56 58 60 62 62 63 62 61 61 57 53 52 52 54 57 58 59 53 51 56 57 59 59 58 58 57 55 51 47 45 46 47 43 39 32 25 25 25 24 19 20 19 16
46 46 49 54 60 62 64 65 65 65 64 61 58 55 54 54 54 58 58 52 58 58 60 62 62 62 60 57 53 48 45 45 46 46 43 33 29 29 27 25 25 23 20 17
35 37 37 38 44 54 62 64 66 68 70 67 64 60 56 55 54 55 61 56 56 55 59 64 64 65 62 59 55 51 50 48 43 42 39 36 34 32 30 30 27 24 22 21
28 32 33 25 27 33 49 58 62 69 71 72 70 64 63 59 56 55 52 58 55 58 58 61 63 65 63 61 56 52 50 49 46 43 40 39 38 36 31 30 29 26 25 23
28 30 30 29 30 30 34 42 52 63 70 75 72 71 68 65 60 57 52 53 59 57 59 60 62 67 67 62 57 53 51 49 48 47 43 41 39 36 35 34 31 28 27 25
25 26 30 31 31 30 31 33 37 50 61 71 74 73 69 69 65 60 56 52 57 56 57 59 61 62 66 64 61 57 53 51 51 47 40 44 41 41 40 37 34 31 29 27
25 24 24 27 29 29 31 35 32 34 46 63 70 75 74 72 67 64 59 55 52 60 54 63 60 61 61 61 64 58 54 53 52 49 44 46 44 43 39 36 34 32 31 29
24 25 24 25 28 31 32 33 25 27 31 43 54 66 71 73 71 68 62 59 55 51 56 59 67 61 58 59 59 58 56 53 51 48 45 45 44 40 39 37 35 35 34 31
25 24 22 21 26 27 27 30 28 29 33 36 46 55 57 68 72 68 64 60 57 54 56 50 58 63 61 63 58 56 56 57 55 53 48 46 44 45 42 38 36 36 35 33
27 23 21 22 25 23 23 26 26 30 35 38 38 37 40 52 65 68 61 60 57 58 64 58 54 60 64 67 59 55 55 55 54 55 51 48 46 45 43 41 40 38 36 35
28 29 29 29 35 22 27 29 31 29 35 41 37 32 34 45 55 55 56 63 57 60 64 66 61 61 62 62 61 53 52 53 54 53 55 52 47 46 44 43 40 39 37 38
32 31 26 27 32 34 31 32 44 43 46 43 32 32 28 36 41 38 44 51 51 53 55 61 69 71 62 60 60 60 52 52 52 54 52 50 46 45 46 45 42 41 41 40
32 31 34 36 43 40 38 42 46 51 47 38 29 25 23 30 41 44 40 50 55 47 60 60 64 60 59 58 56 55 57 51 49 51 51 51 49 46 46 45 44 42 40 40
37 36 40 36 46 44 42 39 43 41 38 22 13 21 26 35 53 47 37 31 59 54 59 63 62 53 55 55 53 50 52 52 43 44 46 45 48 50 52 52 50 45 40 40
39 40 40 49 49 40 37 38 35 31 22 14 18 19 32 34 55 52 31 21 37 56 64 58 59 56 53 49 46 40 40 42 43 39 42 46 46 46 47 49 51 50 46 42
35 37 37 35 36 35 33 35 26 21 20 21 22 23 30 25 62 62 27 25 31 42 39 43 55 55 52 47 41 41 41 42 42 43 41 44 47 46 44 44 44 44 42 38
33 35 34 33 35 34 29 21 21 23 21 24 24 26 26 32 38 41 36 27 31 27 29 24 40 47 47 50 47 43 42 41 42 45 44 43 44 43 43 41 40 40 43 44
30 30 32 34 36 33 22 23 24 25 22 35 39 38 22 32 28 44 17 30 24 17 31 36 29 26 27 32 39 44 44 42 42 43 43 42 42 43 43 41 40 40 41 42
Wind_Direction
258 256 250 242 237 235 231 228 226 226 227 229 229 228 232 224 224 226 226 223 218 216 218 216 208 208 211 216 220 225 228 234 228 226 228 231 234 240 245 251 258 264 268 275
258 257 250 242 237 234 232 227 226 225 225 226 227 226 230 223 224 225 226 224 221 216 214 220 217 211 214 218 219 224 228 234 231 227 227 230 234 242 250 256 264 266 268 274
253 252 250 246 237 236 233 228 227 226 225 226 225 225 228 225 220 227 225 223 225 221 215 217 221 219 218 220 221 224 227 232 233 229 227 229 231 238 247 256 263 269 272 274
250 251 248 246 239 237 234 231 226 227 227 226 226 230 226 224 219 226 226 220 223 224 218 219 219 219 218 222 224 225 228 229 232 231 228 231 234 238 246 255 262 270 271 275
249 247 248 245 242 236 236 235 229 227 228 230 230 230 222 221 218 223 228 222 222 226 223 219 219 218 221 223 224 228 230 230 230 230 227 233 236 240 248 256 265 269 273 280
251 249 244 245 244 239 238 235 234 229 227 229 229 229 224 221 217 219 225 225 222 224 226 223 218 214 215 215 217 223 225 225 227 227 227 232 235 237 246 252 264 265 275 274
249 247 246 242 242 240 237 235 233 233 229 227 230 229 229 221 218 217 220 223 219 225 225 227 223 215 216 219 221 222 223 221 224 225 226 232 233 237 247 249 253 262 271 280
251 246 244 242 239 238 237 235 234 233 229 230 228 228 229 227 217 216 218 219 220 221 225 224 223 220 217 216 221 220 223 222 224 226 227 233 231 239 248 252 254 262 267 275
251 246 243 241 239 236 234 234 234 234 230 228 227 231 229 231 223 216 216 219 220 221 223 224 223 222 221 218 220 220 221 222 223 224 227 231 231 245 254 258 256 263 262 267
249 245 241 239 237 235 233 231 230 232 233 229 225 226 228 230 230 217 217 220 220 219 221 224 225 224 224 223 221 222 222 225 226 228 231 233 235 239 249 259 270 260 263 268
244 241 238 237 235 233 232 230 229 229 230 228 227 225 223 227 226 224 214 218 221 220 219 224 225 226 224 225 221 221 224 229 229 229 232 233 236 241 247 254 258 261 262 263
236 232 231 232 235 232 229 228 228 227 227 227 226 225 225 225 225 223 221 214 221 225 223 222 224 228 226 226 225 221 222 227 232 233 233 235 237 242 241 248 256 260 259 262
230 226 223 224 225 228 230 225 225 226 226 227 225 223 224 222 222 223 221 217 218 223 223 224 225 229 231 227 226 227 225 225 229 230 232 235 238 241 240 245 252 254 256 259
230 227 221 218 222 229 230 228 227 226 226 226 224 223 222 222 220 222 221 219 217 221 225 226 227 226 227 229 229 227 227 228 230 230 230 234 237 238 238 238 244 250 254 256
230 225 221 222 224 228 235 238 234 230 229 227 224 224 223 223 220 219 218 217 219 218 223 225 228 230 230 229 229 225 225 226 229 231 228 233 232 235 236 238 241 245 251 254
224 219 221 223 222 223 233 238 240 239 236 231 227 225 224 223 220 217 216 215 218 216 223 223 225 230 233 233 230 227 226 227 228 230 229 232 235 236 237 239 243 246 247 249
225 222 221 222 217 222 227 240 244 244 246 242 234 227 227 222 221 219 215 213 213 219 213 227 225 228 234 233 229 228 230 230 230 232 232 233 236 238 239 239 241 246 249 252
216 216 212 216 219 222 221 238 237 234 242 245 242 231 228 227 222 219 215 214 213 216 213 215 228 228 232 232 226 227 227 229 229 229 229 231 235 235 239 241 244 249 252 252
208 207 207 215 222 221 232 236 238 239 243 247 247 242 231 226 223 220 218 217 213 214 210 209 219 228 230 230 227 227 228 230 232 233 230 230 233 237 238 241 244 248 250 249
201 203 210 215 212 228 233 237 236 238 252 249 250 245 235 228 221 219 220 219 215 216 212 211 215 220 227 227 228 228 228 229 230 233 233 232 232 237 240 240 242 245 249 251
204 196 210 210 218 234 237 239 226 244 260 261 245 245 235 224 217 206 220 221 215 219 217 218 219 223 226 227 228 226 227 230 231 231 233 233 231 233 237 241 242 244 247 253
204 202 208 216 228 231 231 228 241 249 255 260 250 248 234 219 189 193 211 220 211 230 220 220 221 220 223 226 231 231 227 229 230 233 233 234 235 232 232 238 241 244 246 249
201 201 218 223 226 234 242 258 260 271 272 251 255 256 229 205 190 185 188 218 221 216 226 224 219 219 225 228 232 235 230 226 228 231 236 236 236 236 235 236 240 241 243 249
210 213 216 225 234 246 258 266 275 282 253 240 285 253 205 205 193 186 199 191 221 220 225 221 217 220 226 227 228 231 233 224 221 224 229 234 235 236 239 241 242 244 248 249
214 222 224 227 239 254 264 267 260 222 231 252 255 219 202 207 196 195 195 231 217 229 225 224 221 222 226 231 233 232 228 222 220 222 226 231 235 237 238 241 245 247 241 240
214 222 233 239 250 263 262 244 217 222 234 242 205 196 205 198 207 192 219 221 241 233 211 215 220 224 230 233 234 234 233 228 223 223 224 229 235 238 240 241 242 241 242 245
223 235 244 251 254 257 230 221 224 230 243 205 191 190 180 186 190 196 171 206 207 202 198 218 211 199 205 214 224 228 230 232 226 223 224 227 231 235 236 237 237 238 242 245